Погода в Советском

Россия / Костромская область     58°54′56″N   44°35′23″E
темп.,
°C
ветер,
м/с
пор.,
м/с
влажн.,
%
обл.,
%
осадки,
мм/ч
давл.,
гПа
погр.,
м
15 мая, сб
сб1500:00+14ююв1174100 0.0 101611
03:00+13ю2696100 0.7 1017133
06:00+14ююв269699 1.8 1016189
09:00+17юв3987100 3.9 1015452
12:00+22юв347197 0.3 1013726
15:00+19зсз4784100 4.7 1011330
18:00+16юз61196100 15.6 1012640
21:00+14юв4119776 21.6 1012292
16 мая, вс
вс1600:00+13ююв411965 0.0 1012299
03:00+13ю399819 0.0 1011234
06:00+15ю411957 0.0 1011402
09:00+19ююз510721 0.0 10111058
12:00+22ююз610521 0.0 10111873
15:00+23юз510510 0.0 10112228
18:00+19юз511693 0.8 10111165
21:00+14ююз310865 0.8 1012235
17 мая, пн
пн1700:00+13юз3128913 0.0 1013412
03:00+12юз399816 0.0 1014237
06:00+14зюз37885 0.0 1015287
09:00+19зюз35635 0.0 10161039
12:00+22зюз46495 0.0 10171720
15:00+23з3547100 0.0 10161940
18:00+22сз126184 0.0 1016152
21:00+16всв117769 0.0 101711
18 мая, вт
вт1800:00+14в228589 0.0 101722
03:00+13вюв24919 0.0 101763
06:00+16вюв37805 0.0 1017187
09:00+22юв46583 0.0 1016602
12:00+26юв45452 0.0 10161493
15:00+28ююв46315 0.0 10152997
18:00+25юв384950 0.0 1014269
21:00+19юв312680 0.0 1014237
19 мая, ср
ср1900:00+16юв311730 0.0 1014212
03:00+15юв312700 0.0 1013217
06:00+17юв4126851 0.0 1013324
09:00+23юв5104899 0.0 1012589
12:00+27юв51137100 0.0 10111638
15:00+29юв612335 0.0 10093944
18:00+26юв7134011 0.0 10081341
21:00+17ююз5158799 2.8 1009766